Weather History for KMKG - March, 2013

Change the Weather History Date:

Monday, March 18, 2013

  Actual Average Record
Temperature  
Mean Temperature 29 °F 36 °F  
Max Temperature 35 °F 44 °F 73 °F (2012)
Min Temperature 22 °F 27 °F 5 °F (1967)
Degree Days  
Heating Degree Days 36 29  
Month to date heating degree days 624 581  
Since 1 July heating degree days 5046 5313  
Cooling Degree Days 0 0  
Month to date cooling degree days 0 0  
Year to date cooling degree days 0 0  
Moisture  
Dew Point 25 °F    
Average Humidity 76    
Maximum Humidity 89    
Minimum Humidity 62    
Precipitation  
Precipitation 0.20 in 0.07 in 0.89 in (1952)
Month to date precipitation 1.07 1.27  
Year to date precipitation 10.51 5.13  
Snow  
Snow 1.10 in 0.30 in 6.00 in (1914)
Month to date snowfall 2.7 6.5  
Since 1 July snowfall 95.6 88.9  
Snow Depth 0.00 in    
Sea Level Pressure  
Sea Level Pressure 29.71 in    
Wind  
Wind Speed 13 mph (ESE)    
Max Wind Speed 26 mph    
Max Gust Speed 37 mph    
Visibility 4 miles    
Events Rain , Snow    
T = Trace of Precipitation, MM = Missing Value Source: NWS Daily Summary

Daily Weather History Graph

Daily Weather History Graph

Search for Another Location

Airport or City:

Trip Planner

Search our weather history database for the weather conditions in past years. The results will help you decide how hot, cold, wet, or windy it might be!

Date:

Astronomy

Mar. 18, 2013 Rise Set
Actual Time 7:51 AM EDT 7:55 PM EDT
Civil Twilight 7:22 AM EDT 8:23 PM EDT
Nautical Twilight 6:49 AM EDT 8:56 PM EDT
Astronomical Twilight 6:15 AM EDT 9:30 PM EDT
Moon 11:41 AM EDT (3/18) 2:03 AM EDT (3/18)
Length of Visible Light 13h 00m
Length of Day
12h 03m
Waxing Crescent, 40% of the Moon is Illuminated
Mar 18
Waxing Crescent
Mar 19
First Quarter
Mar 27
Full
Apr 3
Last Quarter
Apr 10
New

Hourly Weather History & Observations

Time (EDT) Temp. Windchill Dew Point Humidity Pressure Visibility Wind Dir Wind Speed Gust Speed Precip Events Conditions
12:55 AM 24.1 °F 13.1 °F 14.0 °F 65% 30.12 in 10.0 mi East 11.5 mph 20.7 mph N/A   Clear
1:55 AM 24.1 °F 12.0 °F 14.0 °F 65% 30.10 in 10.0 mi East 13.8 mph 19.6 mph N/A   Clear
2:55 AM 24.1 °F 12.0 °F 14.0 °F 65% 30.09 in 10.0 mi East 13.8 mph 18.4 mph N/A   Clear
3:55 AM 24.1 °F 11.5 °F 14.0 °F 65% 30.04 in 10.0 mi East 15.0 mph - N/A   Clear
4:55 AM 23.0 °F 10.6 °F 14.0 °F 68% 30.02 in 10.0 mi East 13.8 mph - N/A   Clear
5:55 AM 21.9 °F 8.7 °F 14.0 °F 72% 29.98 in 10.0 mi East 15.0 mph 24.2 mph N/A   Clear
6:55 AM 23.0 °F 10.6 °F 15.1 °F 72% 29.94 in 10.0 mi East 13.8 mph - N/A   Clear
7:55 AM 24.1 °F 11.5 °F 15.1 °F 69% 29.90 in 10.0 mi East 15.0 mph - N/A   Clear
8:55 AM 26.1 °F 15.0 °F 16.0 °F 66% 29.88 in 10.0 mi East 12.7 mph 21.9 mph N/A   Clear
9:55 AM 28.0 °F 18.6 °F 18.0 °F 66% 29.83 in 10.0 mi East 10.4 mph 21.9 mph N/A   Overcast
10:42 AM 28.4 °F 18.0 °F 21.2 °F 74% 29.78 in 1.8 mi East 12.7 mph - 0.00 in Snow Light Snow
10:55 AM 28.0 °F 16.1 °F 21.9 °F 78% 29.79 in 1.2 mi ENE 16.1 mph - 0.01 in Snow Light Snow
11:02 AM 28.4 °F 17.0 °F 21.2 °F 74% 29.76 in 3.0 mi ENE 15.0 mph 21.9 mph 0.00 in Snow Light Snow
11:37 AM 28.4 °F 17.0 °F 23.0 °F 80% 29.73 in 7.0 mi East 15.0 mph 20.7 mph 0.01 in Rain Light Freezing Rain
11:55 AM 28.9 °F 18.2 °F 23.0 °F 78% 29.74 in 5.0 mi East 13.8 mph 21.9 mph 0.01 in Rain Light Freezing Rain
12:05 PM 28.4 °F 17.0 °F 23.0 °F 80% 29.71 in 2.0 mi East 15.0 mph 24.2 mph 0.00 in Rain Light Freezing Rain
12:22 PM 28.4 °F 18.5 °F 23.0 °F 80% 29.71 in 2.0 mi East 11.5 mph 23.0 mph 0.00 in Rain , Snow Light Freezing Rain
12:33 PM 28.4 °F 17.0 °F 24.8 °F 86% 29.70 in 2.0 mi East 15.0 mph 21.9 mph 0.00 in Snow Light Snow
12:55 PM 28.9 °F 18.6 °F 24.1 °F 82% 29.72 in 2.0 mi East 12.7 mph 20.7 mph 0.00 in Snow Light Snow
1:09 PM 30.2 °F 20.2 °F 24.8 °F 80% 29.68 in 3.0 mi East 12.7 mph 20.7 mph 0.00 in Snow Light Snow
1:20 PM 30.2 °F 21.3 °F 24.8 °F 80% 29.68 in 3.0 mi East 10.4 mph 18.4 mph 0.01 in Snow Light Snow
1:55 PM 30.9 °F 20.2 °F 25.0 °F 79% 29.68 in 3.0 mi East 15.0 mph - 0.01 in Snow Light Snow
2:08 PM 30.2 °F 19.8 °F 24.8 °F 80% 29.65 in 3.0 mi East 13.8 mph 23.0 mph 0.00 in Snow Light Snow
2:55 PM 30.9 °F 21.7 °F 26.1 °F 82% 29.64 in 2.0 mi East 11.5 mph - 0.01 in Snow Light Snow
3:22 PM 30.2 °F 21.3 °F 26.6 °F 86% 29.61 in 1.8 mi East 10.4 mph - 0.01 in Snow Light Snow
3:36 PM 30.2 °F 21.3 °F 26.6 °F 86% 29.61 in 1.5 mi ESE 10.4 mph - 0.02 in Snow Light Snow
3:52 PM 30.2 °F 21.9 °F 28.4 °F 93% 29.60 in 1.0 mi ESE 9.2 mph - 0.02 in Snow Light Snow
3:55 PM 32.0 °F 24.2 °F 28.0 °F 85% 29.63 in 1.0 mi East 9.2 mph - 0.02 in Snow Light Snow
4:35 PM 32.0 °F 25.6 °F 28.4 °F 87% 29.59 in 0.8 mi ESE 6.9 mph - 0.01 in Snow Light Snow
4:46 PM 32.0 °F 24.8 °F 28.4 °F 87% 29.58 in 0.8 mi ESE 8.1 mph - 0.02 in Snow Light Snow
4:53 PM 32.0 °F 25.6 °F 28.4 °F 87% 29.58 in 0.8 mi ESE 6.9 mph - 0.02 in Snow Light Snow
4:55 PM 32.0 °F 25.6 °F 28.9 °F 88% 29.61 in 0.8 mi ESE 6.9 mph - 0.02 in Snow Light Snow
5:34 PM 33.8 °F 30.8 °F 30.2 °F 87% 29.58 in 1.0 mi SE 3.5 mph - 0.02 in Snow Light Snow
5:43 PM 33.8 °F 30.8 °F 30.2 °F 87% 29.58 in 0.8 mi SE 3.5 mph - N/A Snow Light Snow
5:53 PM 33.8 °F - 30.2 °F 87% 29.58 in 1.0 mi Calm Calm - 0.02 in Snow Light Snow
5:55 PM 33.1 °F 30.0 °F 30.0 °F 89% 29.60 in 1.0 mi SSE 3.5 mph - 0.02 in Snow Light Snow
6:11 PM 33.8 °F 29.6 °F 30.2 °F 87% 29.57 in 0.8 mi SSE 4.6 mph - 0.01 in Snow Light Snow
6:55 PM 33.1 °F 30.0 °F 30.0 °F 89% 29.59 in 0.8 mi South 3.5 mph - 0.03 in Snow Light Snow
7:02 PM 33.8 °F 29.6 °F 30.2 °F 87% 29.56 in 2.0 mi South 4.6 mph - 0.00 in Snow Light Snow
7:29 PM 33.8 °F 27.0 °F 30.2 °F 87% 29.56 in 1.5 mi South 8.1 mph - 0.00 in Snow Light Snow
7:47 PM 33.8 °F 26.4 °F 30.2 °F 87% 29.56 in 0.8 mi South 9.2 mph - 0.01 in Snow Light Snow
7:55 PM 34.0 °F 25.5 °F 30.9 °F 89% 29.59 in 1.0 mi SW 11.5 mph - 0.01 in Snow Light Snow
8:03 PM 33.8 °F 23.9 °F 30.2 °F 87% 29.56 in 5.0 mi WSW 15.0 mph - 0.01 in Snow Light Snow
8:07 PM 33.8 °F 24.3 °F 30.2 °F 87% 29.56 in 8.0 mi WSW 13.8 mph - 0.01 in Snow Light Snow
8:55 PM 34.0 °F 25.0 °F 30.9 °F 89% 29.60 in 9.0 mi WSW 12.7 mph - 0.01 in Snow Light Snow
9:16 PM 35.6 °F 27.5 °F 30.2 °F 81% 29.57 in 9.0 mi WSW 11.5 mph 20.7 mph 0.00 in Snow Light Snow
9:55 PM 35.1 °F 25.5 °F 28.9 °F 78% 29.60 in 10.0 mi WSW 15.0 mph 23.0 mph 0.00 in   Overcast
10:42 PM 35.6 °F 25.9 °F 30.2 °F 81% 29.58 in 7.0 mi WSW 16.1 mph 21.9 mph 0.00 in Rain Light Rain
10:55 PM 35.1 °F 26.4 °F 30.0 °F 82% 29.61 in 7.0 mi WSW 12.7 mph 24.2 mph 0.00 in Rain Light Rain
11:02 PM 33.8 °F 23.2 °F 30.2 °F 87% 29.58 in 5.0 mi WSW 17.3 mph 28.8 mph 0.00 in Rain Light Rain
11:08 PM 33.8 °F 21.0 °F 28.4 °F 81% 29.58 in 5.0 mi WSW 25.3 mph 32.2 mph 0.00 in Rain Light Freezing Rain
11:55 PM 30.9 °F 19.1 °F 26.1 °F 82% 29.63 in 5.0 mi West 18.4 mph 32.2 mph 0.00 in Rain Light Freezing Rain